Caldwell, ID

9:37 PM MDT on August 30, 2016 (GMT -0600)
Caldwell Industrial

Weather History for KEUL - January, 2014

Change the Weather History Date:

Thursday, January 30, 2014

  Actual Average (KBOI) Record (KBOI)
Temperature  
Mean Temperature 36 °F 33 °F  
Max Temperature 42 °F 40 °F 56 °F (1992)
Min Temperature 30 °F 26 °F -13 °F (1979)
Degree Days  
Heating Degree Days 29 32  
Month to date heating degree days 1014  
Since 1 July heating degree days 3329  
Cooling Degree Days 0 0  
Month to date cooling degree days 0  
Year to date cooling degree days 0  
Moisture  
Dew Point 25 °F    
Average Humidity 69    
Maximum Humidity 80    
Minimum Humidity 53    
Precipitation  
Precipitation 0.00 in 0.03 in 0.55 in (1881)
Month to date precipitation 1.20  
Year to date precipitation 1.20  
Snow  
Snow 0.00 in 0.20 in 4.80 in (1963)
Month to date snowfall 5.0  
Since 1 July snowfall 14.7  
Snow Depth -    
Sea Level Pressure  
Sea Level Pressure 29.85 in    
Wind  
Wind Speed 2 mph (NW)    
Max Wind Speed 12 mph    
Max Gust Speed -    
Visibility 10 miles    
Events      
T = Trace of Precipitation, MM = Missing Value Source: NWS Daily Summary

Daily Weather History Graph

Daily Weather History Graph

Search for Another Location

Airport or City:

Trip Planner

Search our weather history database for the weather conditions in past years. The results will help you decide how hot, cold, wet, or windy it might be!

Date:

Astronomy

Jan. 30, 2014 Rise Set
Actual Time 8:05 AM MST 5:55 PM MST
Civil Twilight 7:34 AM MST 6:25 PM MST
Nautical Twilight 7:00 AM MST 7:00 PM MST
Astronomical Twilight 6:26 AM MST 7:34 PM MST
Moon 7:33 AM MST (1/30) 6:14 PM MST (1/30)
Length of Visible Light 10h 51m
Length of Day
9h 50m
Waning Crescent, 0% of the Moon is Illuminated
Jan 30
Waning Crescent
Jan 30
New
Feb 6
First Quarter
Feb 14
Full
Feb 22
Last Quarter

Hourly Weather History & Observations

Time (MST) Temp. Windchill Dew Point Humidity Pressure Visibility Wind Dir Wind Speed Gust Speed Precip Events Conditions
12:15 AM 33.8 °F - 24.8 °F 70% 29.82 in 10.0 mi Calm Calm - N/A   Overcast
12:35 AM 35.6 °F - 26.6 °F 70% 29.81 in 10.0 mi Calm Calm - N/A   Scattered Clouds
12:55 AM 35.6 °F - 24.8 °F 65% 29.82 in 10.0 mi Calm Calm - N/A   Clear
1:15 AM 33.8 °F - 24.8 °F 70% 29.82 in 10.0 mi Calm Calm - N/A   Clear
1:35 AM 33.8 °F - 24.8 °F 70% 29.82 in 10.0 mi Calm Calm - N/A   Clear
1:55 AM 33.8 °F - 24.8 °F 70% 29.82 in 10.0 mi Calm Calm - N/A   Clear
2:15 AM 33.8 °F - 24.8 °F 70% 29.82 in 10.0 mi Calm Calm - N/A   Clear
2:35 AM 33.8 °F - 24.8 °F 70% 29.83 in 10.0 mi Calm Calm - N/A   Mostly Cloudy
2:55 AM 35.6 °F - 26.6 °F 70% 29.83 in 10.0 mi Calm Calm - N/A   Overcast
3:15 AM 35.6 °F - 26.6 °F 70% 29.83 in 10.0 mi Calm Calm - N/A   Overcast
3:35 AM 33.8 °F - 24.8 °F 70% 29.83 in 10.0 mi Calm Calm - N/A   Overcast
3:55 AM 35.6 °F - 26.6 °F 70% 29.82 in 10.0 mi Calm Calm - N/A   Overcast
4:15 AM 33.8 °F - 24.8 °F 70% 29.82 in 10.0 mi Calm Calm - N/A   Mostly Cloudy
4:35 AM 33.8 °F - 24.8 °F 70% 29.83 in 10.0 mi Calm Calm - N/A   Mostly Cloudy
4:55 AM 33.8 °F - 24.8 °F 70% 29.83 in 10.0 mi Calm Calm - N/A   Overcast
5:15 AM 33.8 °F - 24.8 °F 70% 29.83 in 10.0 mi Calm Calm - N/A   Overcast
5:35 AM 33.8 °F - 24.8 °F 70% 29.83 in 10.0 mi Calm Calm - N/A   Overcast
5:55 AM 32.0 °F - 24.8 °F 75% 29.83 in 10.0 mi Calm Calm - N/A   Overcast
6:15 AM 32.0 °F - 24.8 °F 75% 29.83 in 10.0 mi Calm Calm - N/A   Overcast
6:35 AM 32.0 °F - 24.8 °F 75% 29.82 in 10.0 mi Calm Calm - N/A   Overcast
6:55 AM 32.0 °F - 24.8 °F 75% 29.82 in 10.0 mi Calm Calm - N/A   Overcast
7:15 AM 32.0 °F - 24.8 °F 75% 29.83 in 10.0 mi Calm Calm - N/A   Overcast
7:35 AM 32.0 °F - 24.8 °F 75% 29.84 in 10.0 mi Calm Calm - N/A   Overcast
7:55 AM 32.0 °F - 24.8 °F 75% 29.84 in 10.0 mi Calm Calm - N/A   Overcast
8:15 AM 32.0 °F - 24.8 °F 75% 29.85 in 10.0 mi Calm Calm - N/A   Mostly Cloudy
8:35 AM 30.2 °F - 23.0 °F 75% 29.86 in 10.0 mi Calm Calm - N/A   Mostly Cloudy
8:55 AM 32.0 °F - 24.8 °F 75% 29.86 in 10.0 mi Calm Calm - N/A   Scattered Clouds
9:15 AM 30.2 °F - 24.8 °F 80% 29.87 in 10.0 mi Calm Calm - N/A   Clear
9:35 AM 30.2 °F - 24.8 °F 80% 29.87 in 10.0 mi Calm Calm - N/A   Scattered Clouds
9:55 AM 30.2 °F - 24.8 °F 80% 29.88 in 10.0 mi Calm Calm - N/A   Partly Cloudy
10:15 AM 33.8 °F - 24.8 °F 70% 29.88 in 10.0 mi Calm Calm - N/A   Clear
10:35 AM 35.6 °F - 26.6 °F 70% 29.88 in 10.0 mi Calm Calm - N/A   Clear
10:55 AM 35.6 °F - 26.6 °F 70% 29.88 in 10.0 mi Calm Calm - N/A   Clear
11:15 AM 37.4 °F - 26.6 °F 65% 29.89 in 10.0 mi Calm Calm - N/A   Clear
11:35 AM 37.4 °F - 26.6 °F 65% 29.89 in 10.0 mi Calm Calm - N/A   Clear
11:55 AM 37.4 °F 32.8 °F 26.6 °F 65% 29.89 in 10.0 mi North 5.8 mph - N/A   Clear
12:15 PM 37.4 °F 32.8 °F 28.4 °F 70% 29.88 in 10.0 mi NNW 5.8 mph - N/A   Clear
12:35 PM 39.2 °F 34.2 °F 28.4 °F 65% 29.88 in 10.0 mi North 6.9 mph - N/A   Clear
12:55 PM 39.2 °F 32.5 °F 28.4 °F 65% 29.86 in 10.0 mi North 10.4 mph - N/A   Clear
1:15 PM 39.2 °F 32.5 °F 28.4 °F 65% 29.86 in 10.0 mi North 10.4 mph - N/A   Clear
1:35 PM 41.0 °F 34.3 °F 28.4 °F 61% 29.85 in 10.0 mi NNW 11.5 mph - N/A   Clear
1:55 PM 42.8 °F 37.5 °F 28.4 °F 57% 29.84 in 10.0 mi North 9.2 mph - N/A   Clear
2:15 PM 42.8 °F 37.5 °F 28.4 °F 57% 29.84 in 10.0 mi North 9.2 mph - N/A   Clear
2:35 PM 42.8 °F 37.5 °F 28.4 °F 57% 29.83 in 10.0 mi North 9.2 mph - N/A   Clear
2:55 PM 42.8 °F 37.0 °F 28.4 °F 57% 29.83 in 10.0 mi North 10.4 mph - N/A   Clear
3:15 PM 42.8 °F 37.0 °F 28.4 °F 57% 29.83 in 10.0 mi North 10.4 mph - N/A   Clear
3:35 PM 42.8 °F 36.6 °F 28.4 °F 57% 29.83 in 10.0 mi North 11.5 mph - N/A   Clear
3:55 PM 42.8 °F 37.0 °F 26.6 °F 53% 29.83 in 10.0 mi North 10.4 mph - N/A   Clear
4:15 PM 42.8 °F 36.6 °F 28.4 °F 57% 29.83 in 10.0 mi North 11.5 mph - N/A   Clear
4:35 PM 41.0 °F 35.2 °F 26.6 °F 57% 29.84 in 10.0 mi North 9.2 mph - N/A   Clear
4:55 PM 39.2 °F 37.0 °F 26.6 °F 61% 29.84 in 10.0 mi NNW 3.5 mph - N/A   Clear
5:15 PM 39.2 °F 35.9 °F 26.6 °F 61% 29.85 in 10.0 mi NW 4.6 mph - N/A   Clear
5:35 PM 37.4 °F 33.8 °F 24.8 °F 60% 29.85 in 10.0 mi NW 4.6 mph - N/A   Clear
5:55 PM 39.2 °F 35.9 °F 24.8 °F 56% 29.86 in 10.0 mi NW 4.6 mph - N/A   Clear
6:15 PM 37.4 °F 33.8 °F 24.8 °F 60% 29.86 in 10.0 mi WSW 4.6 mph - N/A   Clear
6:35 PM 35.6 °F 31.7 °F 24.8 °F 65% 29.86 in 10.0 mi West 4.6 mph - N/A   Clear
6:55 PM 35.6 °F 31.7 °F 24.8 °F 65% 29.86 in 10.0 mi WNW 4.6 mph - N/A   Clear
7:15 PM 33.8 °F 30.8 °F 24.8 °F 70% 29.87 in 10.0 mi West 3.5 mph - N/A   Clear
7:35 PM 33.8 °F 30.8 °F 24.8 °F 70% 29.87 in 10.0 mi WSW 3.5 mph - N/A   Clear
7:55 PM 33.8 °F 28.6 °F 24.8 °F 70% 29.87 in 10.0 mi West 5.8 mph - N/A   Clear
8:15 PM 30.2 °F 22.6 °F 23.0 °F 75% 29.87 in 10.0 mi WNW 8.1 mph - N/A   Clear
8:35 PM 32.0 °F 26.4 °F 24.8 °F 75% 29.87 in 10.0 mi West 5.8 mph - N/A   Clear
8:55 PM 32.0 °F 26.4 °F 24.8 °F 75% 29.87 in 10.0 mi WNW 5.8 mph - N/A   Clear
9:15 PM 30.2 °F 23.4 °F 24.8 °F 80% 29.88 in 10.0 mi WNW 6.9 mph - N/A   Clear
9:35 PM 30.2 °F 24.3 °F 23.0 °F 75% 29.88 in 10.0 mi NW 5.8 mph - N/A   Clear
9:55 PM 30.2 °F 24.3 °F 24.8 °F 80% 29.88 in 10.0 mi WNW 5.8 mph - N/A   Clear
10:15 PM 30.2 °F 25.4 °F 23.0 °F 75% 29.89 in 10.0 mi North 4.6 mph - N/A   Clear
10:35 PM 30.2 °F 25.4 °F 21.2 °F 69% 29.90 in 10.0 mi NW 4.6 mph - N/A   Clear
10:55 PM 30.2 °F - 23.0 °F 75% 29.90 in 10.0 mi Calm Calm - N/A   Clear
11:15 PM 30.2 °F 25.4 °F 23.0 °F 75% 29.90 in 10.0 mi West 4.6 mph - N/A   Clear
11:35 PM 30.2 °F 25.4 °F 23.0 °F 75% 29.90 in 10.0 mi West 4.6 mph - N/A   Clear
11:55 PM 30.2 °F 22.6 °F 23.0 °F 75% 29.90 in 10.0 mi WNW 8.1 mph - N/A   Clear